sat.trackr.live / text

‹ back to catalog

STARLINK-32442

NORAD 61729 · 2024-196Y

PAYLOAD ACTIVE UNKNOWN

§ Identity

Operator
Country
US
Launch date
2024-10-30
Launch site
AFETR
Launch vehicle
Mass (kg)
RCS (m²)

Purposes: comms

External: N2YO · Heavens-Above · Gunter

§ Orbital elements

Epoch: 2026-05-25T03:36:15.239232Z

Period
94.11 min
Inclination
53.1586°
Eccentricity
0.0001756
Mean motion
15.30181690 rev/d
Perigee alt
474.1 km
Apogee alt
476.5 km
Semi-major
6,853.4 km
B*
-2.1749e-5
RAAN
106.1398°
Arg perigee
93.7307°
Mean anomaly
266.3895°
Rev number
8,886

§ Raw data

STARLINK-324421 61729U 24196Y   26145.15017638 -.00001003  00000+0 -21749-4 0  99982 61729  53.1586 106.1398 0001756  93.7307 266.3895 15.30181690 88864

JSON: /api/v1/satellites/61729 · /tle

For live sub-satellite position, see the globe view (requires WebGL).

§ Visibility from observer

Set your observer location to see the next 7 days of passes ≥ 10°. The values pass through the URL so the page stays shareable.

No JS? Fill the form by hand. The geolocation button needs JavaScript.